Year,Month,Day,Hour,Minute,Value (Times are PST for temperature in C)
2015,03,26,00,00,9.10
2015,03,26,00,01,9.10
2015,03,26,00,02,9.10
2015,03,26,00,03,9.10
2015,03,26,00,04,9.10
2015,03,26,00,05,9.20
2015,03,26,00,06,9.20
2015,03,26,00,07,9.20
2015,03,26,00,08,9.20
2015,03,26,00,09,9.20
2015,03,26,00,10,9.20
2015,03,26,00,11,9.20
2015,03,26,00,12,9.20
2015,03,26,00,13,9.20
2015,03,26,00,14,9.20
2015,03,26,00,15,9.20
2015,03,26,00,16,9.30
2015,03,26,00,17,9.30
2015,03,26,00,18,9.30
2015,03,26,00,19,9.30
2015,03,26,00,20,9.30
2015,03,26,00,21,9.40
2015,03,26,00,22,9.40
2015,03,26,00,23,9.50
2015,03,26,00,24,9.60
2015,03,26,00,26,9.60
2015,03,26,00,28,9.70
2015,03,26,00,29,9.70
2015,03,26,00,30,9.70
2015,03,26,00,31,9.70
2015,03,26,00,32,9.80
2015,03,26,00,35,9.90
2015,03,26,00,38,10.20
2015,03,26,00,39,10.30
2015,03,26,00,40,10.40
2015,03,26,00,41,10.50
2015,03,26,00,42,10.70
2015,03,26,00,43,10.70
2015,03,26,00,45,10.90
2015,03,26,00,46,10.90
2015,03,26,00,47,11.00
2015,03,26,00,48,11.10
2015,03,26,00,49,11.20
2015,03,26,00,50,11.20
2015,03,26,00,51,11.30
2015,03,26,00,52,11.40
2015,03,26,00,53,11.50
2015,03,26,00,54,11.60
2015,03,26,00,55,11.60
2015,03,26,00,56,11.70
2015,03,26,00,57,11.70
2015,03,26,00,58,11.70
2015,03,26,01,00,11.80
2015,03,26,01,01,11.80
2015,03,26,01,02,11.80
2015,03,26,01,03,11.80
2015,03,26,01,05,11.90
2015,03,26,01,06,11.90
2015,03,26,01,07,11.90
2015,03,26,01,08,11.90
2015,03,26,01,10,11.90
2015,03,26,01,11,11.90
2015,03,26,01,12,11.90
2015,03,26,01,14,11.90
2015,03,26,01,15,11.90
2015,03,26,01,16,11.90
2015,03,26,01,17,11.90
2015,03,26,01,18,11.90
2015,03,26,01,19,11.90
2015,03,26,01,20,11.90
2015,03,26,01,21,11.90
2015,03,26,01,22,12.00
2015,03,26,01,23,12.00
2015,03,26,01,24,12.00
2015,03,26,01,25,12.10
2015,03,26,01,26,12.10
2015,03,26,01,27,12.10
2015,03,26,01,28,12.10
2015,03,26,01,29,12.10
2015,03,26,01,30,12.10
2015,03,26,01,31,12.10
2015,03,26,01,32,12.10
2015,03,26,01,33,12.10
2015,03,26,01,34,12.20
2015,03,26,01,35,12.20
2015,03,26,01,36,12.20
2015,03,26,01,38,12.20
2015,03,26,01,39,12.20
2015,03,26,01,40,12.20
2015,03,26,01,41,12.20
2015,03,26,01,42,12.30
2015,03,26,01,43,12.30
2015,03,26,01,44,12.30
2015,03,26,01,45,12.30
2015,03,26,01,46,12.40
2015,03,26,01,47,12.40
2015,03,26,01,48,12.40
2015,03,26,01,49,12.40
2015,03,26,01,50,12.40
2015,03,26,01,51,12.40
2015,03,26,01,52,12.40
2015,03,26,01,53,12.40
2015,03,26,01,54,12.50
2015,03,26,01,55,12.50
2015,03,26,01,56,12.50
2015,03,26,01,57,12.60
2015,03,26,01,58,12.60
2015,03,26,01,59,12.60
2015,03,26,02,00,12.60
2015,03,26,02,01,12.60
2015,03,26,02,02,12.60
2015,03,26,02,03,12.60
2015,03,26,02,04,12.60
2015,03,26,02,05,12.60
2015,03,26,02,06,12.60
2015,03,26,02,08,12.60
2015,03,26,02,09,12.60
2015,03,26,02,10,12.60
2015,03,26,02,11,12.60
2015,03,26,02,12,12.60
2015,03,26,02,13,12.50
2015,03,26,02,14,12.60
2015,03,26,02,15,12.50
2015,03,26,02,16,12.50
2015,03,26,02,17,12.40
2015,03,26,02,18,12.50
2015,03,26,02,19,12.50
2015,03,26,02,20,12.40
2015,03,26,02,21,12.40
2015,03,26,02,22,12.40
2015,03,26,02,23,12.40
2015,03,26,02,25,12.40
2015,03,26,02,26,12.40
2015,03,26,02,27,12.40
2015,03,26,02,28,12.40
2015,03,26,02,30,12.40
2015,03,26,02,31,12.40
2015,03,26,02,32,12.40
2015,03,26,02,34,12.40
2015,03,26,02,35,12.50
2015,03,26,02,51,12.50
2015,03,26,02,52,12.50
2015,03,26,02,53,12.40
2015,03,26,02,54,12.40
2015,03,26,02,55,12.40
2015,03,26,02,56,12.40
2015,03,26,02,58,12.40
2015,03,26,02,59,12.30
2015,03,26,03,00,12.30
2015,03,26,03,01,12.30
2015,03,26,03,02,12.30
2015,03,26,03,03,12.30
2015,03,26,03,04,12.30
2015,03,26,03,05,12.30
2015,03,26,03,06,12.30
2015,03,26,03,07,12.30
2015,03,26,03,08,12.30
2015,03,26,03,09,12.30
2015,03,26,03,10,12.30
2015,03,26,03,11,12.30
2015,03,26,03,12,12.30
2015,03,26,03,13,12.30
2015,03,26,03,14,12.30
2015,03,26,03,15,12.30
2015,03,26,03,16,12.30
2015,03,26,03,17,12.30
2015,03,26,03,18,12.20
2015,03,26,03,19,12.20
2015,03,26,03,20,12.20
2015,03,26,03,21,12.20
2015,03,26,03,22,12.20
2015,03,26,03,23,12.20
2015,03,26,03,24,12.20
2015,03,26,03,25,12.10
2015,03,26,03,26,12.20
2015,03,26,03,27,12.20
2015,03,26,03,28,12.10
2015,03,26,03,29,12.10
2015,03,26,03,30,12.10
2015,03,26,03,31,12.10
2015,03,26,03,32,12.10
2015,03,26,03,33,12.10
2015,03,26,03,35,12.10
2015,03,26,03,36,12.10
2015,03,26,03,37,12.10
2015,03,26,03,38,12.10
2015,03,26,03,39,12.10
2015,03,26,03,40,12.10
2015,03,26,03,41,12.10
2015,03,26,03,42,12.10
2015,03,26,03,43,12.10
2015,03,26,03,44,12.10
2015,03,26,03,45,12.10
2015,03,26,03,46,12.10
2015,03,26,03,47,12.10
2015,03,26,03,48,12.10
2015,03,26,03,49,12.10
2015,03,26,03,50,12.10
2015,03,26,03,51,12.10
2015,03,26,03,52,12.10
2015,03,26,03,53,12.10
2015,03,26,03,54,12.10
2015,03,26,03,55,12.10
2015,03,26,03,56,12.10
2015,03,26,03,57,12.10
2015,03,26,03,58,12.10
2015,03,26,03,59,12.10
2015,03,26,04,00,12.10
2015,03,26,04,01,12.10
2015,03,26,04,02,12.00
2015,03,26,04,03,12.00
2015,03,26,04,04,11.90
2015,03,26,04,05,11.90
2015,03,26,04,06,11.90
2015,03,26,04,07,11.80
2015,03,26,04,08,11.80
2015,03,26,04,09,11.80
2015,03,26,04,10,11.70
2015,03,26,04,11,11.70
2015,03,26,04,12,11.70
2015,03,26,04,13,11.70
2015,03,26,04,14,11.70
2015,03,26,04,15,11.60
2015,03,26,04,16,11.60
2015,03,26,04,17,11.60
2015,03,26,04,18,11.60
2015,03,26,04,19,11.60
2015,03,26,04,20,11.50
2015,03,26,04,21,11.50
2015,03,26,04,22,11.40
2015,03,26,04,23,11.40
2015,03,26,04,24,11.40
2015,03,26,04,25,11.40
2015,03,26,04,26,11.40
2015,03,26,04,27,11.30
2015,03,26,04,28,11.40
2015,03,26,04,29,11.30
2015,03,26,04,30,11.30
2015,03,26,04,31,11.30
2015,03,26,04,32,11.30
2015,03,26,04,33,11.30
2015,03,26,04,34,11.30
2015,03,26,04,36,11.30
2015,03,26,04,37,11.30
2015,03,26,04,38,11.40
2015,03,26,04,39,11.40
2015,03,26,04,40,11.40
2015,03,26,04,41,11.40
2015,03,26,04,42,11.40
2015,03,26,04,43,11.50
2015,03,26,04,44,11.60
2015,03,26,04,45,11.60
2015,03,26,04,46,11.70
2015,03,26,04,47,11.70
2015,03,26,04,48,11.70
2015,03,26,04,49,11.80
2015,03,26,04,50,11.80
2015,03,26,04,51,11.80
2015,03,26,04,52,11.80
2015,03,26,04,53,11.80
2015,03,26,04,54,11.90
2015,03,26,04,55,11.90
2015,03,26,04,56,11.90
2015,03,26,04,57,11.90
2015,03,26,04,58,11.90
2015,03,26,04,59,12.00
2015,03,26,05,00,11.90
2015,03,26,05,01,12.00
2015,03,26,05,02,11.90
2015,03,26,05,03,12.00
2015,03,26,05,04,11.90
2015,03,26,05,05,11.90
2015,03,26,05,06,11.90
2015,03,26,05,07,11.90
2015,03,26,05,08,11.90
2015,03,26,05,09,11.90
2015,03,26,05,10,11.90
2015,03,26,05,11,11.90
2015,03,26,05,12,11.90
2015,03,26,05,13,11.90
2015,03,26,05,14,11.90
2015,03,26,05,15,11.90
2015,03,26,05,16,11.90
2015,03,26,05,17,11.90
2015,03,26,05,18,11.90
2015,03,26,05,19,11.90
2015,03,26,05,20,12.00
2015,03,26,05,21,12.00
2015,03,26,05,22,12.00
2015,03,26,05,23,12.10
2015,03,26,05,24,12.10
2015,03,26,05,25,12.10
2015,03,26,05,26,12.10
2015,03,26,05,27,12.10
2015,03,26,05,28,12.10
2015,03,26,05,29,12.10
2015,03,26,05,30,12.10
2015,03,26,05,31,12.10
2015,03,26,05,32,12.20
2015,03,26,05,33,12.20
2015,03,26,05,34,12.20
2015,03,26,05,35,12.20
2015,03,26,05,37,12.20
2015,03,26,05,38,12.20
2015,03,26,05,39,12.20
2015,03,26,05,40,12.30
2015,03,26,05,41,12.30
2015,03,26,05,42,12.30
2015,03,26,05,43,12.30
2015,03,26,05,44,12.30
2015,03,26,05,45,12.30
2015,03,26,05,46,12.30
2015,03,26,05,47,12.30
2015,03,26,05,48,12.30
2015,03,26,05,49,12.30
2015,03,26,05,50,12.30
2015,03,26,05,51,12.30
2015,03,26,05,52,12.30
2015,03,26,05,53,12.30
2015,03,26,05,54,12.30
2015,03,26,05,55,12.30
2015,03,26,05,56,12.30
2015,03,26,05,57,12.30
2015,03,26,05,58,12.30
2015,03,26,05,59,12.20
2015,03,26,06,01,12.20
2015,03,26,06,02,12.20
2015,03,26,06,03,12.10
2015,03,26,06,04,12.10
2015,03,26,06,05,12.00
2015,03,26,06,06,11.90
2015,03,26,06,07,11.90
2015,03,26,06,08,11.90
2015,03,26,06,09,11.80
2015,03,26,06,10,11.80
2015,03,26,06,11,11.80
2015,03,26,06,12,11.80
2015,03,26,06,13,11.80
2015,03,26,06,14,11.80
2015,03,26,06,15,11.70
2015,03,26,06,16,11.80
2015,03,26,06,17,11.80
2015,03,26,06,18,11.80
2015,03,26,06,19,11.80
2015,03,26,06,20,11.80
2015,03,26,06,21,11.80
2015,03,26,06,22,11.80
2015,03,26,06,23,11.80
2015,03,26,06,24,11.80
2015,03,26,06,25,11.80
2015,03,26,06,26,11.80
2015,03,26,06,27,11.80
2015,03,26,06,28,11.80
2015,03,26,06,29,11.80
2015,03,26,06,30,11.80
2015,03,26,06,31,11.80
2015,03,26,06,32,11.80
2015,03,26,06,33,11.80
2015,03,26,06,34,11.80
2015,03,26,06,35,11.80
2015,03,26,06,36,11.70
2015,03,26,06,37,11.70
2015,03,26,06,38,11.70
2015,03,26,06,39,11.70
2015,03,26,06,40,11.70
2015,03,26,06,41,11.70
2015,03,26,06,42,11.70
2015,03,26,06,43,11.60
2015,03,26,06,44,11.60
2015,03,26,06,45,11.60
2015,03,26,06,46,11.60
2015,03,26,06,47,11.60
2015,03,26,06,48,11.60
2015,03,26,06,49,11.60
2015,03,26,06,50,11.60
2015,03,26,06,51,11.50
2015,03,26,06,52,11.50
2015,03,26,06,53,11.50
2015,03,26,06,54,11.40
2015,03,26,06,55,11.40
2015,03,26,06,56,11.40
2015,03,26,06,57,11.40
2015,03,26,06,58,11.40
2015,03,26,06,59,11.40
2015,03,26,07,00,11.40
2015,03,26,07,01,11.40
2015,03,26,07,02,11.40
2015,03,26,07,03,11.40
2015,03,26,07,04,11.40
2015,03,26,07,05,11.30
2015,03,26,07,06,11.40
2015,03,26,07,07,11.40
2015,03,26,07,08,11.40
2015,03,26,07,09,11.40
2015,03,26,07,10,11.40
2015,03,26,07,11,11.40
2015,03,26,07,12,11.40
2015,03,26,07,13,11.40
2015,03,26,07,14,11.40
2015,03,26,07,15,11.40
2015,03,26,07,16,11.40
2015,03,26,07,17,11.40
2015,03,26,07,18,11.40
2015,03,26,07,19,11.40
2015,03,26,07,20,11.40
2015,03,26,07,21,11.30
2015,03,26,07,22,11.30
2015,03,26,07,23,11.30
2015,03,26,07,24,11.30
2015,03,26,07,25,11.30
2015,03,26,07,26,11.30
2015,03,26,07,27,11.30
2015,03,26,07,28,11.30
2015,03,26,07,29,11.30
2015,03,26,07,30,11.30
2015,03,26,07,31,11.30
2015,03,26,07,32,11.30
2015,03,26,07,33,11.20
2015,03,26,07,34,11.20
2015,03,26,07,35,11.20
2015,03,26,07,36,11.20
2015,03,26,07,37,11.20
2015,03,26,07,38,11.20
2015,03,26,07,39,11.10
2015,03,26,07,40,11.10
2015,03,26,07,41,11.10
2015,03,26,07,42,11.10
2015,03,26,07,43,11.10
2015,03,26,07,44,11.10
2015,03,26,07,45,11.10
2015,03,26,07,46,11.10
2015,03,26,07,47,11.00
2015,03,26,07,48,11.00
2015,03,26,07,49,11.00
2015,03,26,07,50,11.00
2015,03,26,07,51,11.00
2015,03,26,07,52,11.00
2015,03,26,07,53,11.00
2015,03,26,07,54,11.00
2015,03,26,07,55,11.00
2015,03,26,07,56,11.00
2015,03,26,07,57,11.10
2015,03,26,07,58,11.10
2015,03,26,07,59,11.10
2015,03,26,08,00,11.10
2015,03,26,08,01,11.10
2015,03,26,08,02,11.10
2015,03,26,08,03,11.10
2015,03,26,08,04,11.10
2015,03,26,08,05,11.10
2015,03,26,08,06,11.10
2015,03,26,08,07,11.10
2015,03,26,08,08,11.10
2015,03,26,08,09,11.10
2015,03,26,08,10,11.10
2015,03,26,08,11,11.10
2015,03,26,08,12,11.20
2015,03,26,08,13,11.20
2015,03,26,08,14,11.10
2015,03,26,08,15,11.10
2015,03,26,08,16,11.10
2015,03,26,08,17,11.10
2015,03,26,08,18,11.10
2015,03,26,08,19,11.10
2015,03,26,08,20,11.10
2015,03,26,08,21,11.10
2015,03,26,08,22,11.10
2015,03,26,08,23,11.10
2015,03,26,08,24,11.10
2015,03,26,08,25,11.10
2015,03,26,08,26,11.10
2015,03,26,08,27,11.10
2015,03,26,08,28,11.10
2015,03,26,08,29,11.10
2015,03,26,08,30,11.10
2015,03,26,08,31,11.10
2015,03,26,08,32,11.10
2015,03,26,08,33,11.10
2015,03,26,08,34,11.10
2015,03,26,08,35,11.10
2015,03,26,08,36,11.10
2015,03,26,08,37,11.10
2015,03,26,08,38,11.10
2015,03,26,08,39,11.10
2015,03,26,08,40,11.10
2015,03,26,08,41,11.10
2015,03,26,08,42,11.10
2015,03,26,08,43,11.10
2015,03,26,08,44,11.10
2015,03,26,08,45,11.10
2015,03,26,08,46,11.10
2015,03,26,08,47,11.10
2015,03,26,08,48,11.20
2015,03,26,08,49,11.20
2015,03,26,08,50,11.20
2015,03,26,08,51,11.20
2015,03,26,08,52,11.20
2015,03,26,08,53,11.20
2015,03,26,08,54,11.20
2015,03,26,08,55,11.20
2015,03,26,08,56,11.20
2015,03,26,08,57,11.30
2015,03,26,08,58,11.20
2015,03,26,08,59,11.30
2015,03,26,09,00,11.20
2015,03,26,09,01,11.20
2015,03,26,09,02,11.20
2015,03,26,09,03,11.20
2015,03,26,09,04,11.20
2015,03,26,09,05,11.20
2015,03,26,09,06,11.20
2015,03,26,09,07,11.20
2015,03,26,09,08,11.20
2015,03,26,09,09,11.20
2015,03,26,09,10,11.20
2015,03,26,09,11,11.20
2015,03,26,09,12,11.20
2015,03,26,09,13,11.20
2015,03,26,09,14,11.20
2015,03,26,09,15,11.20
2015,03,26,09,16,11.20
2015,03,26,09,17,11.20
2015,03,26,09,18,11.20
2015,03,26,09,19,11.20
2015,03,26,09,20,11.20
2015,03,26,09,21,11.20
2015,03,26,09,22,11.20
2015,03,26,09,23,11.20
2015,03,26,09,24,11.30
2015,03,26,09,25,11.30
2015,03,26,09,26,11.30
2015,03,26,09,27,11.30
2015,03,26,09,28,11.30
2015,03,26,09,29,11.30
2015,03,26,09,30,11.40
2015,03,26,09,31,11.40
2015,03,26,09,32,11.40
2015,03,26,09,33,11.40
2015,03,26,09,34,11.40
2015,03,26,09,35,11.40
2015,03,26,09,36,11.50
2015,03,26,09,37,11.50
2015,03,26,09,39,11.50
2015,03,26,09,40,11.50
2015,03,26,09,41,11.60
2015,03,26,09,42,11.60
2015,03,26,09,43,11.60
2015,03,26,09,44,11.60
2015,03,26,09,45,11.60
2015,03,26,09,46,11.60
2015,03,26,09,47,11.60
2015,03,26,09,48,11.70
2015,03,26,09,49,11.70
2015,03,26,09,50,11.70
2015,03,26,09,51,11.70
2015,03,26,09,52,11.70
2015,03,26,09,54,11.70
2015,03,26,09,55,11.70
2015,03,26,09,56,11.70
2015,03,26,09,57,11.70
2015,03,26,09,58,11.70
2015,03,26,09,59,11.70
2015,03,26,10,00,11.80
2015,03,26,10,01,11.80
2015,03,26,10,02,11.80
2015,03,26,10,03,11.80
2015,03,26,10,04,11.80
2015,03,26,10,05,11.80
2015,03,26,10,06,11.80
2015,03,26,10,07,11.80
2015,03,26,10,08,11.80
2015,03,26,10,09,11.80
2015,03,26,10,10,11.90
2015,03,26,10,11,11.90
2015,03,26,10,12,11.90
2015,03,26,10,13,11.90
2015,03,26,10,14,11.90
2015,03,26,10,15,11.90
2015,03,26,10,16,11.90
2015,03,26,10,17,12.00
2015,03,26,10,18,12.00
2015,03,26,10,19,12.00
2015,03,26,10,20,12.00
2015,03,26,10,21,12.00
2015,03,26,10,22,12.00
2015,03,26,10,23,12.00
2015,03,26,10,24,12.00
2015,03,26,10,25,12.10
2015,03,26,10,26,12.10
2015,03,26,10,27,12.10
2015,03,26,10,28,12.10
2015,03,26,10,29,12.10
2015,03,26,10,30,12.10
2015,03,26,10,31,12.10
2015,03,26,10,32,12.20
2015,03,26,10,33,12.20
2015,03,26,10,34,12.20
2015,03,26,10,35,12.20
2015,03,26,10,36,12.20
2015,03,26,10,37,12.20
2015,03,26,10,38,12.20
2015,03,26,10,39,12.30
2015,03,26,10,40,12.30
2015,03,26,10,41,12.30
2015,03,26,10,42,12.30
2015,03,26,10,43,12.30
2015,03,26,10,44,12.40
2015,03,26,10,45,12.40
2015,03,26,10,46,12.40
2015,03,26,10,47,12.40
2015,03,26,10,48,12.50
2015,03,26,10,49,12.50
2015,03,26,10,50,12.50
2015,03,26,10,51,12.60
2015,03,26,10,52,12.60
2015,03,26,10,53,12.60
2015,03,26,10,54,12.60
2015,03,26,10,55,12.70
2015,03,26,10,56,12.70
2015,03,26,10,57,12.70
2015,03,26,10,58,12.80
2015,03,26,10,59,12.80
2015,03,26,11,00,12.80
2015,03,26,11,01,12.80
2015,03,26,11,02,12.90
2015,03,26,11,03,12.90
2015,03,26,11,04,12.90
2015,03,26,11,05,12.90
2015,03,26,11,06,12.90
2015,03,26,11,07,13.00
2015,03,26,11,08,13.00
2015,03,26,11,09,13.00
2015,03,26,11,10,13.10
2015,03,26,11,12,13.10
2015,03,26,11,13,13.10
2015,03,26,11,14,13.20
2015,03,26,11,15,13.20
2015,03,26,11,16,13.20
2015,03,26,11,17,13.20
2015,03,26,11,18,13.20
2015,03,26,11,19,13.30
2015,03,26,11,20,13.30
2015,03,26,11,21,13.30
2015,03,26,11,22,13.30
2015,03,26,11,23,13.30
2015,03,26,11,24,13.40
2015,03,26,11,25,13.40
2015,03,26,11,26,13.40
2015,03,26,11,27,13.40
2015,03,26,11,28,13.40
2015,03,26,11,29,13.50
2015,03,26,11,30,13.50
2015,03,26,11,32,13.60
2015,03,26,11,33,13.60
2015,03,26,11,34,13.60
2015,03,26,11,35,13.60
2015,03,26,11,36,13.70
2015,03,26,11,37,13.70
2015,03,26,11,38,13.70
2015,03,26,11,39,13.70
2015,03,26,11,40,13.70
2015,03,26,11,41,13.80
2015,03,26,11,42,13.80
2015,03,26,11,43,13.80
2015,03,26,11,44,13.80
2015,03,26,11,45,13.90
2015,03,26,11,46,13.90
2015,03,26,11,47,14.00
2015,03,26,11,48,14.10
2015,03,26,11,49,14.10
2015,03,26,11,50,14.20
2015,03,26,11,51,14.30
2015,03,26,11,52,14.30
2015,03,26,11,53,14.40
2015,03,26,11,54,14.40
2015,03,26,11,55,14.60
2015,03,26,11,56,14.70
2015,03,26,11,57,14.80
2015,03,26,11,58,14.90
2015,03,26,11,59,14.90
2015,03,26,12,00,15.00
2015,03,26,12,02,15.10
2015,03,26,12,03,15.10
2015,03,26,12,04,15.10
2015,03,26,12,05,15.10
2015,03,26,12,06,15.10
2015,03,26,12,07,15.10
2015,03,26,12,08,15.10
2015,03,26,12,09,15.20
2015,03,26,12,10,15.20
2015,03,26,12,11,15.20
2015,03,26,12,12,15.20
2015,03,26,12,13,15.20
2015,03,26,12,14,15.20
2015,03,26,12,15,15.20
2015,03,26,12,16,15.20
2015,03,26,12,17,15.20
2015,03,26,12,18,15.20
2015,03,26,12,19,15.10
2015,03,26,12,20,15.10
2015,03,26,12,21,15.10
2015,03,26,12,22,15.10
2015,03,26,12,23,15.10
2015,03,26,12,24,15.10
2015,03,26,12,25,15.10
2015,03,26,12,26,15.10
2015,03,26,12,27,15.10
2015,03,26,12,28,15.10
2015,03,26,12,29,15.10
2015,03,26,12,30,15.10
2015,03,26,12,31,15.10
2015,03,26,12,32,15.10
2015,03,26,12,33,15.10
2015,03,26,12,34,15.20
2015,03,26,12,35,15.10
2015,03,26,12,36,15.20
2015,03,26,12,37,15.20
2015,03,26,12,38,15.20
2015,03,26,12,39,15.20
2015,03,26,12,40,15.20
2015,03,26,12,41,15.20
2015,03,26,12,42,15.30
2015,03,26,12,43,15.30
2015,03,26,12,44,15.30
2015,03,26,12,45,15.30
2015,03,26,12,46,15.30
2015,03,26,12,47,15.30
2015,03,26,12,48,15.30
2015,03,26,12,49,15.30
2015,03,26,12,50,15.30
2015,03,26,12,51,15.30
2015,03,26,12,52,15.30
2015,03,26,12,53,15.30
2015,03,26,12,54,15.30
2015,03,26,12,55,15.30
2015,03,26,12,56,15.30
2015,03,26,12,57,15.30
2015,03,26,12,58,15.30
2015,03,26,12,59,15.30
2015,03,26,13,00,15.40
2015,03,26,13,01,15.40
2015,03,26,13,02,15.40
2015,03,26,13,03,15.40
2015,03,26,13,04,15.40
2015,03,26,13,05,15.40
2015,03,26,13,06,15.40
2015,03,26,13,07,15.40
2015,03,26,13,08,15.50
2015,03,26,13,09,15.50
2015,03,26,13,10,15.50
2015,03,26,13,11,15.60
2015,03,26,13,12,15.60
2015,03,26,13,13,15.60
2015,03,26,13,14,15.60
2015,03,26,13,15,15.70
2015,03,26,13,16,15.70
2015,03,26,13,17,15.70
2015,03,26,13,18,15.70
2015,03,26,13,19,15.70
2015,03,26,13,20,15.70
2015,03,26,13,21,15.70
2015,03,26,13,22,15.70
2015,03,26,13,23,15.70
2015,03,26,13,24,15.70
2015,03,26,13,25,15.70
2015,03,26,13,26,15.70
2015,03,26,13,27,15.70
2015,03,26,13,28,15.70
2015,03,26,13,29,15.70
2015,03,26,13,30,15.70
2015,03,26,13,31,15.70
2015,03,26,13,32,15.70
2015,03,26,13,33,15.70
2015,03,26,13,34,15.70
2015,03,26,13,35,15.70
2015,03,26,13,36,15.70
2015,03,26,13,37,15.70
2015,03,26,13,38,15.80
2015,03,26,13,39,15.80
2015,03,26,13,40,15.80
2015,03,26,13,41,15.80
2015,03,26,13,42,15.90
2015,03,26,13,43,15.90
2015,03,26,13,44,15.90
2015,03,26,13,45,15.90
2015,03,26,13,46,15.90
2015,03,26,13,47,16.00
2015,03,26,13,48,16.00
2015,03,26,13,49,16.10
2015,03,26,13,50,16.10
2015,03,26,13,51,16.10
2015,03,26,13,52,16.10
2015,03,26,13,53,16.10
2015,03,26,13,54,16.10
2015,03,26,13,55,16.10
2015,03,26,13,56,16.20
2015,03,26,13,57,16.20
2015,03,26,13,58,16.20
2015,03,26,13,59,16.20
2015,03,26,14,00,16.20
2015,03,26,14,01,16.20
2015,03,26,14,02,16.20
2015,03,26,14,03,16.20
2015,03,26,14,04,16.30
2015,03,26,14,05,16.30
2015,03,26,14,07,16.30
2015,03,26,14,08,16.30
2015,03,26,14,09,16.30
2015,03,26,14,10,16.30
2015,03,26,14,11,16.30
2015,03,26,14,12,16.40
2015,03,26,14,13,16.40
2015,03,26,14,14,16.40
2015,03,26,14,15,16.40
2015,03,26,14,17,16.40
2015,03,26,14,18,16.40
2015,03,26,14,19,16.50
2015,03,26,14,20,16.60
2015,03,26,14,21,16.60
2015,03,26,14,22,16.60
2015,03,26,14,23,16.60
2015,03,26,14,24,16.60
2015,03,26,14,25,16.60
2015,03,26,14,26,16.60
2015,03,26,14,27,16.60
2015,03,26,14,28,16.60
2015,03,26,14,29,16.50
2015,03,26,14,30,16.50
2015,03,26,14,31,16.50
2015,03,26,14,32,16.50
2015,03,26,14,33,16.60
2015,03,26,14,34,16.60
2015,03,26,14,35,16.60
2015,03,26,14,36,16.60
2015,03,26,14,37,16.60
2015,03,26,14,38,16.60
2015,03,26,14,39,16.60
2015,03,26,14,40,16.60
2015,03,26,14,41,16.60
2015,03,26,14,42,16.60
2015,03,26,14,43,16.60
2015,03,26,14,44,16.60
2015,03,26,14,45,16.60
2015,03,26,14,46,16.60
2015,03,26,14,47,16.60
2015,03,26,14,48,16.60
2015,03,26,14,49,16.60
2015,03,26,14,50,16.70
2015,03,26,14,51,16.70
2015,03,26,14,52,16.70
2015,03,26,14,53,16.70
2015,03,26,14,54,16.80
2015,03,26,14,55,16.80
2015,03,26,14,56,16.90
2015,03,26,14,57,16.90
2015,03,26,14,58,17.10
2015,03,26,14,59,17.10
2015,03,26,15,00,17.20
2015,03,26,15,01,17.20
2015,03,26,15,02,17.30
2015,03,26,15,03,17.30
2015,03,26,15,04,17.30
2015,03,26,15,05,17.30
2015,03,26,15,06,17.30
2015,03,26,15,07,17.30
2015,03,26,15,08,17.30
2015,03,26,15,09,17.20
2015,03,26,15,10,17.20
2015,03,26,15,11,17.20
2015,03,26,15,12,17.10
2015,03,26,15,13,17.10
2015,03,26,15,14,17.10
2015,03,26,15,15,17.10
2015,03,26,15,16,17.10
2015,03,26,15,17,17.10
2015,03,26,15,18,17.20
2015,03,26,15,19,17.20
2015,03,26,15,20,17.20
2015,03,26,15,21,17.30
2015,03,26,15,22,17.30
2015,03,26,15,23,17.30
2015,03,26,15,24,17.30
2015,03,26,15,25,17.30
2015,03,26,15,26,17.20
2015,03,26,15,27,17.20
2015,03,26,15,28,17.20
2015,03,26,15,29,17.20
2015,03,26,15,30,17.20
2015,03,26,15,31,17.20
2015,03,26,15,32,17.20
2015,03,26,15,33,17.20
2015,03,26,15,34,17.20
2015,03,26,15,35,17.20
2015,03,26,15,36,17.30
2015,03,26,15,37,17.30
2015,03,26,15,38,17.30
2015,03,26,15,39,17.30
2015,03,26,15,40,17.30
2015,03,26,15,41,17.30
2015,03,26,15,42,17.30
2015,03,26,15,43,17.30
2015,03,26,15,44,17.30
2015,03,26,15,45,17.30
2015,03,26,15,46,17.20
2015,03,26,15,47,17.20
2015,03,26,15,48,17.20
2015,03,26,15,49,17.10
2015,03,26,15,50,17.10
2015,03,26,15,51,17.00
2015,03,26,15,52,16.90
2015,03,26,15,53,16.80
2015,03,26,15,54,16.80
2015,03,26,15,55,16.80
2015,03,26,15,56,16.70
2015,03,26,15,57,16.70
2015,03,26,15,58,16.70
2015,03,26,15,59,16.60
2015,03,26,16,00,16.60
2015,03,26,16,02,16.60
2015,03,26,16,03,16.60
2015,03,26,16,04,16.60
2015,03,26,16,05,16.70
2015,03,26,16,06,16.70
2015,03,26,16,07,16.60
2015,03,26,16,08,16.60
2015,03,26,16,09,16.60
2015,03,26,16,10,16.60
2015,03,26,16,11,16.60
2015,03,26,16,12,16.60
2015,03,26,16,13,16.60
2015,03,26,16,14,16.50
2015,03,26,16,15,16.50
2015,03,26,16,16,16.40
2015,03,26,16,17,16.40
2015,03,26,16,18,16.30
2015,03,26,16,19,16.30
2015,03,26,16,20,16.30
2015,03,26,16,21,16.20
2015,03,26,16,22,16.20
2015,03,26,16,23,16.20
2015,03,26,16,24,16.10
2015,03,26,16,25,16.10
2015,03,26,16,26,16.10
2015,03,26,16,27,16.00
2015,03,26,16,28,16.00
2015,03,26,16,29,16.00
2015,03,26,16,30,16.00
2015,03,26,16,31,16.00
2015,03,26,16,32,16.00
2015,03,26,16,33,16.00
2015,03,26,16,34,15.90
2015,03,26,16,35,15.90
2015,03,26,16,36,15.90
2015,03,26,16,37,15.90
2015,03,26,16,38,15.90
2015,03,26,16,39,15.90
2015,03,26,16,40,16.00
2015,03,26,16,41,16.00
2015,03,26,16,42,16.10
2015,03,26,16,43,16.10
2015,03,26,16,44,16.20
2015,03,26,16,45,16.30
2015,03,26,16,46,16.30
2015,03,26,16,47,16.30
2015,03,26,16,48,16.40
2015,03,26,16,49,16.40
2015,03,26,16,50,16.40
2015,03,26,16,51,16.40
2015,03,26,16,52,16.40
2015,03,26,16,53,16.40
2015,03,26,16,54,16.40
2015,03,26,16,55,16.40
2015,03,26,16,56,16.30
2015,03,26,16,57,16.30
2015,03,26,16,58,16.30
2015,03,26,16,59,16.30
2015,03,26,17,00,16.20
2015,03,26,17,01,16.20
2015,03,26,17,02,16.20
2015,03,26,17,03,16.20
2015,03,26,17,04,16.20
2015,03,26,17,05,16.20
2015,03,26,17,06,16.20
2015,03,26,17,07,16.10
2015,03,26,17,08,16.10
2015,03,26,17,09,16.10
2015,03,26,17,10,16.10
2015,03,26,17,11,16.00
2015,03,26,17,12,15.90
2015,03,26,17,13,15.90
2015,03,26,17,14,15.90
2015,03,26,17,15,15.80
2015,03,26,17,16,15.80
2015,03,26,17,17,15.80
2015,03,26,17,18,15.80
2015,03,26,17,19,15.80
2015,03,26,17,20,15.80
2015,03,26,17,21,15.80
2015,03,26,17,22,15.70
2015,03,26,17,23,15.80
2015,03,26,17,24,15.80
2015,03,26,17,25,15.80
2015,03,26,17,26,15.80
2015,03,26,17,27,15.80
2015,03,26,17,28,15.80
2015,03,26,17,29,15.80
2015,03,26,17,30,15.80
2015,03,26,17,31,15.90
2015,03,26,17,32,15.90
2015,03,26,17,33,15.80
2015,03,26,17,34,15.80
2015,03,26,17,35,15.90
2015,03,26,17,36,15.90
2015,03,26,17,37,15.90
2015,03,26,17,38,15.90
2015,03,26,17,39,15.90
2015,03,26,17,40,15.90
2015,03,26,17,41,15.90
2015,03,26,17,42,15.90
2015,03,26,17,43,15.90
2015,03,26,17,44,15.80
2015,03,26,17,45,15.80
2015,03,26,17,46,15.80
2015,03,26,17,47,15.80
2015,03,26,17,48,15.80
2015,03,26,17,49,15.80
2015,03,26,17,50,15.80
2015,03,26,17,51,15.80
2015,03,26,17,52,15.80
2015,03,26,17,53,15.80
2015,03,26,17,54,15.80
2015,03,26,17,55,15.80
2015,03,26,17,56,15.70
2015,03,26,17,57,15.70
2015,03,26,17,58,15.70
2015,03,26,17,59,15.70
2015,03,26,18,00,15.70
2015,03,26,18,01,15.70
2015,03,26,18,02,15.70
2015,03,26,18,03,15.70
2015,03,26,18,04,15.70